This is the latest recevied weather packets stored in our database for station/object KB1JL-13. If no packets are shown the sender has not sent any weather packets the latest 10 day(s).
| Time | Temp. | Humidity | Pressure | Rain* | Wind** | Luminosity | Snow |
|---|---|---|---|---|---|---|---|
| 1778008436 | 22.22° C | 64% | 1020.9 hPa | 0 mm | - | 580 W/m² | - |
| 1778008132 | 22.22° C | 64% | 1020.9 hPa | 0 mm | - | 571 W/m² | - |
| 1778007827 | 22.22° C | 63% | 1020.9 hPa | 0 mm | - | 569 W/m² | - |
| 1778007523 | 22.22° C | 63% | 1020.9 hPa | 0 mm | - | 531 W/m² | - |
| 1778007220 | 22.78° C | 61% | 1020.9 hPa | 0 mm | - | 540 W/m² | - |
| 1778006916 | 22.22° C | 63% | 1020.9 hPa | 0 mm | - | 508 W/m² | - |
| 1778006613 | 22.22° C | 62% | 1020.9 hPa | 0 mm | - | 514 W/m² | - |
| 1778006310 | 22.22° C | 63% | 1020.9 hPa | 0 mm | - | 547 W/m² | - |
| 1778006007 | 22.78° C | 62% | 1021.2 hPa | 0 mm | - | 580 W/m² | - |
| 1778005704 | 22.78° C | 60% | 1020.9 hPa | 0 mm | - | 620 W/m² | - |
| 1778005401 | 22.78° C | 61% | 1020.9 hPa | 0 mm | - | 635 W/m² | - |
| 1778005097 | 23.33° C | 62% | 1020.5 hPa | 0 mm | - | 625 W/m² | - |
| 1778004795 | 22.78° C | 63% | 1020.9 hPa | 0 mm | - | 587 W/m² | - |
| 1778004491 | 23.33° C | 61% | 1020.9 hPa | 0 mm | - | 600 W/m² | - |
| 1778004188 | 22.78° C | 61% | 1020.9 hPa | 0 mm | - | 622 W/m² | - |
| 1778003884 | 22.78° C | 65% | 1021.2 hPa | 0 mm | - | 618 W/m² | - |
| 1778003581 | 22.78° C | 62% | 1021.2 hPa | 0 mm | - | 615 W/m² | - |
| 1778003277 | 22.78° C | 60% | 1021.2 hPa | 0 mm | - | 639 W/m² | - |
| 1778002975 | 22.78° C | 61% | 1021.6 hPa | 0 mm | - | 641 W/m² | - |
| 1778002670 | 22.78° C | 61% | 1021.2 hPa | 0 mm | - | 647 W/m² | - |
| 1778002367 | 22.78° C | 61% | 1021.2 hPa | 0 mm | - | 655 W/m² | - |
| 1778002064 | 22.22° C | 62% | 1021.6 hPa | 0 mm | - | 638 W/m² | - |
| 1778001761 | 22.22° C | 65% | 1021.2 hPa | 0 mm | - | 645 W/m² | - |
| 1778001461 | 22.22° C | 62% | 1021.2 hPa | 0 mm | - | 649 W/m² | - |
| 1778001158 | 22.22° C | 62% | 1021.6 hPa | 0 mm | - | 661 W/m² | - |
* Rain latest hour (hover to see other rain measurements)
** Current wind speed in m/s (hover to see current wind gust speed)